Погода Сегян-Кюель

Погода Сегян-Кюель : погода сейчас, прогноз погоды и архив. Всё, что Вы хотите узнать о погоде Сегян-Кюель!

Поиск расширенной информации на нашем сайте:

Другие новости

Новости СМИ2

Главная страница сайта

Новости сайта

03.07.2017

Напоминаем, что на нашем специализированном сайте Метеоцентр.Азия вы можете получить высокодетализированные автоматические прогнозы погоды по пунктам России, СНГ и мира в авиационном формате (включающие направление и скорость ветра, видимость, явления погоды, количество и форму облачности, нижнюю и верхнюю границу облачности).

Рекомендуем: недорогая финская сауна

Погода Сегян-Кюель - сегодня

Время (UTC), дата Ветер
(°,м/с) 
Видим.   Явления Облачность Т
(°С)
Тd
(°С)
f(%) Тe
(°С)
Pmin
(гПа)
dP
(гПа)
Po
(мм)
O2
(г/м3)
Тmin Tmax R s Состояние
почвы
15 21.09.17 тихо ()   10 км  слаб. снег{ливн. осадки}  10/6 600 м средняя 
[St|As op]
+0.6 +0 96 +1  1013  0.5  740  298           
18 21.09.17 тихо ()   10 км  слаб. ливневой снег  10/10 600 м кучево-дожд. 
[Cb cap]
+0.4 -0.2 96 1013.3  0.3  741  298           
21 21.09.17 тихо ()   10 км  слаб. ливневой снег  10/8 600 м кучево-дожд., средняя 
[Cb cap|As op]
+0.1 +0.1 100 1014.4  741  299           
00 22.09.17 тихо ()   20000 м  {ливн. осадки}  9/9 600 м 
[St]
+1.1 +0.6 96 +1  1015.2  0.9  742  298  +0.1      мокрая 
03 22.09.17 070 (В) 20000 м    3/3 600 м 
[Cu med, cong]
+5.1 -2.1 60 +6  1015  0.1  742  294           
06 22.09.17 тихо ()   20000 м    3/3 600 м 
[Sc diur, vesp]
+7 -0.8 58 +7  1014.9  0.1  742  292           
09 22.09.17 тихо ()   20000 м    ясно 
+5.7 -1.3 61 +6  1015.4  0.3  742  293           
12 22.09.17 тихо ()   20000 м    ясно 
-1.9 -3.2 91 -2  1016.5  0.5  743  302    +7.9       
15 22.09.17 010 (С) 20000 м    ясно 
+1.5 -5.1 61 1015.9  -0.3  743  298           
18 22.09.17 020 (С) 20000 м    ясно 
+2 -6.8 52 +1  1015.5  -0.4  742  298           
21 22.09.17 010 (С) 20000 м    3/0 верхняя 
[Ci fib]
+1.8 -9 45 +1  1014.9  -0.6  742  298           
00 23.09.17 030 (СВ) 20000 м    1/0 верхняя 
[Ci fib]
+3.9 -8.8 39 +3  1014.4  -0.3  742  295  -0.5        влажная 
03 23.09.17 020 (С) 20000 м    1/0 верхняя 
[Ci fib]
+7.5 -8 32 +7  1012.4  -1.6  740  291           
06 23.09.17 040 (СВ) 20000 м    1/0 верхняя 
[Ci fib]
+11.2 -7.4 26 +12  1010.5  -1.5  739  287           
09 23.09.17 360 (С) 20000 м    1/0 верхняя 
[Ci fib]
+9 -8.6 28 +10  1010.2  -0.6  739  289           
12 23.09.17 060 (СВ) 20000 м    ясно 
+7.3 -7.9 33 +7  1010.6  0.3  739  291    +11.6       
15 23.09.17 010 (С) 20000 м    ясно 
+4 -5.1 51 +4  1010.9  739  294           
18 23.09.17 360 (С) 20000 м    ясно 
+5 -5.6 46 +4  1010  -0.8  738  293           
21 23.09.17 030 (СВ) 20000 м    ясно 
+4.5 -5.1 50 +4  1009.9  -0.1  738  293           
00 24.09.17 030 (СВ) 20000 м    ясно 
+7.5 -4.4 43 +7  1009.5  -0.2  738  290  +0.7        влажная 
03 24.09.17 030 (СВ) 20000 м    ясно 
+11.8 -1.2 40 +12  1007.9  -1.2  737  285           
06 24.09.17 020 (С) 20000 м    ясно 
+15.1 -0.1 35 +16  1006.1  -1.3  736  281           
09 24.09.17 040 (СВ) 20000 м    ясно 
+12.6 -2.1 36 +13  1006.3  -0.1  736  284           
12 24.09.17 030 (СВ) 20000 м    3/0 верхняя 
[Ci fib]
+8.7 -4.1 40 +9  1008.3  1.5  737  288    +15.3       
15 24.09.17 040 (СВ) 20000 м    10/0 средняя 
[As op]
+8.2 -2.2 48 +8  1008.4  0.1  737  289           
Время (UTC), дата Ветер
(°,м/с) 
Видим.   Явления Облачность Т
(°С)
Тd
(°С)
f(%) Тe
(°С)
Pmin
(гПа)
dP
(гПа)
Po
(мм)
O2
(г/м3)
Тmin Tmax R s Состояние
почвы

Для получения пояснительной информации подведите курсор к названию столбца.

ПОГОДА Сегян-Кюель - архив

Всё, что Вы хотите узнать о погоде Сегян-Кюель - удобно и подробно!

Выберите нужную дату (начиная с 1 января 2015* года) и нажмите кнопку "Найти".
Будут отображены архивные сводки погоды по пункту Сегян-Кюель, начиная с указанной даты.


Отображать данные в формате CSV (для использования в таблицах Excel)


Внимание! Наш архив погоды предназначен исключительно для личного некоммерческого использования в познавательных целях. Если Вам необходимы официальные справки о состоянии погоды (для производственных, юридических, коммерческих и т.п. целей), обращайтесь в органы Росгидромета.

*Примечание: данная дата относится к архиву по метеостанциям СССР (Россия, СНГ, Балтия).
Архив по метеостанциям Зарубежной Европы и Азии (кроме Китая) хранится 10 дней, по другим регионам земного шара (Китай, Африка, Америка, Австралия, Океания) - 1 день.

Сегян-Кюель - район местоположения метеостанции


Название, широта, долгота, высота метеостанции:
Сегян-Кюель 64.00°ш. 130.30°д. 211 м над ур. моря [Российская Федерация]

Дополнительная информация

В oтличие oт бoльшинства пoгoдных сайтoв мы публикуем пoдрoбную метеoинфoрмацию в детальнoм прoфессиoнальнoм фoрмате.

Характеристики температуры и влажнoсти вoздуха измеряются на высoте 2 м в тени вдали oт зданий и деревьев.
Скoрoсть ветра измеряется на высoте 10 м (на урoвне рoста челoвека скoрoсть ветра ниже в 1.5-2 раза). Если метеoстанция нахoдится в гoрoде или в лесу, тo скoрoсть ветра занижена на 2-4 м/с пo сравнению с oткрытым местoм. Скoрoсть ветра над акватoриями крупных рек и oзёр, а также на вершинах хoлмoв на 2-5 м/с выше, чем в oбычных услoвиях.
Атмoсфернoе давление в разных тoчках местнoсти мoжет значительнo oтличаться oт давления на метеoстанции, в зависимoсти oт услoвий рельефа (при пoдъёме на 10 м давление пoнижается примернo на 1 мм рт.ст.).